Regional Weather Roundup
Issued by NWS Upton, NY

Current Version | Previous Version | Text Only | Print | Product List | Glossary On
Versions: 1 2 3 4 5 6 7 8 9 10 11 12 13 14 15 16 17 18 19 20 21 22 23 24 25 26 27
000
ASUS41 KOKX 241005
RWROKX

REGIONAL WEATHER ROUNDUP
NATIONAL WEATHER SERVICE NEW YORK NY
600 AM EDT TUE MAY 24 2016

NOTE: "FAIR" INDICATES FEW OR NO CLOUDS BELOW 12,000 FEET WITH NO
SIGNIFICANT WEATHER AND/OR OBSTRUCTIONS TO VISIBILITY.

NYZ071-072-176-178-NJZ106-104-241100-
NEW YORK CITY METRO AREA


CITY           SKY/WX    TMP DP  RH WIND       PRES   REMARKS
CENTRAL PARK   LGT RAIN  58  56  93 CALM      29.91R FOG
LAGUARDIA APRT RAIN      60  60 100 CALM      29.87R FOG
KENNEDY INTL   LGT RAIN  61  56  83 NW14      29.88R
NEWARK/LIBERTY CLOUDY    59  56  89 W5        29.88R
BRNX BOT. GARD   N/A     57  55  94 CALM      29.89R
TETERBORO      LGT RAIN  59  55  87 CALM      29.87R
$$

NYZ177-179-078>081-241100-
LONG ISLAND NEW YORK

CITY           SKY/WX    TMP DP  RH WIND       PRES   REMARKS
FARMINGDALE    CLOUDY    59  54  83 NW3       29.87R HAZE
ISLIP          LGT RAIN  57  54  89 NW5       29.84S
SHIRLEY        CLOUDY    57  54  89 CALM      29.86R
RIVERHEAD        N/A     55  55 100 NE5       29.83R
WESTHAMPTON    LGT RAIN  52  52 100 CALM      29.87R
EAST HAMPTON   DRIZZLE   56  55  94 N9G20     29.83S
MONTAUK POINT    N/A     54  54 100 N8        29.86S
$$

NYZ052-065-067-241100-
HUDSON VALLEY

CITY           SKY/WX    TMP DP  RH WIND       PRES   REMARKS
WHITE PLAINS   LGT RAIN  57  54  89 NW9       29.86R
NEWBURGH       LGT RAIN  55  55 100 NW9       29.90R
MONTGOMERY     LGT RAIN  56  55  97 CALM      29.90R
POUGHKEEPSIE   CLOUDY    58  54  86 CALM      29.88S
ALBANY         CLOUDY    60  53  77 CALM      29.90R
$$

NJZ001-105-106-008-010-013-015-019>022-104-241100-
NEW JERSEY

CITY           SKY/WX    TMP DP  RH WIND       PRES   REMARKS
NEWARK/LIBERTY CLOUDY    59  56  89 W5        29.88R
TETERBORO      LGT RAIN  59  55  87 CALM      29.87R
CALDWELL       CLOUDY    57  55  93 S3        29.89R
MORRISTOWN     LGT RAIN  57  55  94 SW5       29.89S
SOMERVILLE     LGT RAIN  56  55  97 CALM      29.88S FOG
SUSSEX         LGT RAIN  57  54  89 CALM      29.90S
ANDOVER          N/A     57  55  93 SE5       29.90S
TRENTON        CLOUDY    56  54  93 NW3       29.90R FOG
MILLVILLE      CLOUDY    56  55  97 CALM      29.90R
ATLANTIC CITY  CLOUDY    57  55  93 N3        29.91R
WRIGHTSTOWN    LGT RAIN  55  54  94 VRB1      29.88R
TOMS RIVER     CLOUDY    55  52  88 W3        29.90R
BELMAR         LGT RAIN  56  55  97 W3        29.90
$$

PAZ047>061-062-071-241100-
EASTERN PENNSYLVANIA

CITY           SKY/WX    TMP DP  RH WIND       PRES   REMARKS
PHILADELPHIA   MOCLDY    56  53  90 E3        29.92R
ALLENTOWN      PTCLDY    55  52  89 CALM      29.91R
SCRANTON       CLOUDY    55  46  71 CALM      29.94R
$$

CTZ002-004>006-009-010-012-RIZ004-006-007-MAZ004-011-015-241100-
SOUTHERN NEW ENGLAND
 IN CT

CITY           SKY/WX    TMP DP  RH WIND       PRES   REMARKS
BRADLEY INTL   MOCLDY    57  54  89 N5        29.87R
HARTFORD       CLOUDY    60  56  86 CALM      29.87R
DANBURY        LGT RAIN  56  54  93 SW3       29.88S
WTRBRY/OXFORD    N/A     57  52  82 NW8       29.88R
BRIDGEPORT     CLOUDY    58  54  86 NE5       29.86R
MERIDEN        LGT RAIN  58  55  90 NW3       29.87R
NEW HAVEN      LGT RAIN  57  55  93 NE5       29.87R
CHESTER        LGT RAIN  55  55 100 CALM      29.88R
GROTON         LGT RAIN  57  57 100 CALM      29.86S FOG
WILLIMANTIC    LGT RAIN  60  54  80 NE7       29.87R

 IN RI

CITY           SKY/WX    TMP DP  RH WIND       PRES   REMARKS
PROVIDENCE     LGT RAIN  55  52  89 NE13      29.88S
BLOCK ISLAND   CLOUDY    54  53  97 NE10G21   29.85S
WESTERLY       LGT RAIN  57  52  83 N6        29.86R

 IN MA

CITY           SKY/WX    TMP DP  RH WIND       PRES   REMARKS
BOSTON         CLOUDY    53  51  93 NE12      29.91S
WORCESTER      NOT AVBL
WESTFIELD      LGT RAIN  57  54  89 NE9       29.88R
PROVINCETOWN   CLOUDY    50  49  96 NE13      29.89S FOG
NANTUCKET      FOG       53  51  93 NE14      29.85R VSB 1/4
$$

ANZ330-335-338-340-345-350-353-355-241100-
COASTAL MARINE OBSERVATIONS


STATION/POSITION TIME  SKY/WX   TEMP    WIND        PRES    VSBY  WAVE
                                AIR SEA DIR/SP/G                  HT/PER
                 (UTC)          (F)     (DEG/KT/KT) (MB)    (MI)  (FT/S)
NY HARB ENTRANCE 0850            57 56  280/ 10/ 12 1011.0          3/ 7
20S FIRE ISLAND  0850            55 54  290/ 14/ 14 1010.1          4/ 8
GREAT SOUTH BAY  0900            58 63  320/  8/ 10   N/A
23 SSW MONTAUK P 0950            55 54   20/ 16/ 17 1009.5          4/ 9
15 E BARNEGAT LI 0922               54                N/A           3/ 7
HUDSON CANYON    0850            53 52              1011.2          5/ 8
KINGS POINT      0900            58 57              1010.9
EXECUTION ROCKS  NOT AVBL
CENTRAL LI SOUND 0900            57     140/  2/  4   N/A           1/ 2
EASTERN LI SOUND 0900            55 52  240/  4/ 14   N/A
ROBBINS REEF     0900            58     280/  9/ 10 1010.7
$$


>>>>>>>>>>>>>>>>>>>>>>>>>>>> KEY <<<<<<<<<<<<<<<<<<<<<<<<<<<
>                                                          <
>     SKY/WX - SKY CONDITION/PRESENT WEATHER               <
>     TMP    - TEMPERATURE IN FAHRENHEIT                   <
>     DP     - DEWPOINT IN FAHRENHEIT                      <
>     RH     - RELATIVE HUMIDITY IN PERCENT                <
>     WIND   - DIRECTION AND SPEED IN MPH                  <
>     PRES   - MEAN SEA LEVEL PRESSURE IN INCHES OF HG     <
>     WCI    - WIND CHILL INDEX                            <
>     VSB    - VISIBILITY IN MILES                         <
>     HX     - HEAT INDEX                                  <
>     TC     - TEMPERATURE IN CELSIUS                      <
>     VRB    - VARIABLE WIND DIRECTION                     <
>                                                          <
>>>>>>>>>>>>>>>>>>>>>>>>>>>> KEY <<<<<<<<<<<<<<<<<<<<<<<<<<<






USA.gov is the U.S. government's official web portal to all federal, state and local government web resources and services.